Flag for South Africa Weather past 2 weeks in Port Elizabeth, South Africa

Now
61 °F

Clear.


Feels Like: 61 °F
Forecast: 57 / 64 °F
Wind: 20 mph from Northeast

Location: Port Elizabeth Airport

Current Time: Jul 7, 2015 at 7:16:03 AM

Latest Report: Jul 7, 2015 at 6:00 AM


Visibility: 10 mi

Pressure: 30.27 "Hg

Humidity: 83%

Dew point: 55 °F

Location of Port ElizabethLocation

Historic Weather in Port Elizabeth — Graph

°F

Port Elizabeth temperature yesterday

Maximum temperature yesterday: 64 °F (at 12:00 PM)
Minimum temperature yesterday: 57 °F (at 5:00 AM)
Average temperature yesterday: 61 °F

Past Weeks' High & Low Weather Summary

 TemperatureHumidityPressure
High77 °F (Jun 22, 4:00 PM)100% (Jun 30, 7:55 AM)30.48 "Hg (Jun 30, 7:55 AM)
Low43 °F (Jun 30, 6:00 AM)36% (Jun 24, 11:57 AM)29.80 "Hg (Jun 24, 1:01 AM)
Average58 °F77%30.20 "Hg
* Reported Jun 22 6:00 AM — Jul 7 6:00 AM, Port Elizabeth, Weather by CustomWeather, © 2015

Note: Actual official high and low records may vary slightly from our data, if they occured in-between our weather recording intervals... More about our weather records

Advertising

Port Elizabeth weather history for previous 24 hours

 ConditionsComfort  
Time TempWeatherWind HumidityBarometerVisibility
6:00 AM
Tue, Jul 7
61 °FClear.20 mph83%30.27 "Hg10 mi
5:00 AM61 °FPassing clouds.22 mph83%30.30 "HgN/A
4:00 AM61 °FPassing clouds.23 mph83%30.33 "HgN/A
3:00 AM61 °FPassing clouds.23 mph83%30.36 "HgN/A
2:00 AM61 °FPassing clouds.25 mph83%30.39 "HgN/A
1:00 AM61 °FPassing clouds.24 mph83%30.42 "HgN/A
12:00 AM61 °FPassing clouds.23 mph83%30.42 "HgN/A
11:00 PM
Mon, Jul 6
63 °FPassing clouds.20 mph77%30.45 "HgN/A
10:00 PM61 °FPassing clouds.23 mph83%30.48 "HgN/A
9:00 PM61 °FPassing clouds.23 mph83%30.48 "HgN/A
8:00 PM63 °FPassing clouds.20 mph73%30.48 "HgN/A
7:00 PM63 °FPassing clouds.18 mph73%30.48 "HgN/A
6:00 PM63 °FPassing clouds.21 mph73%30.48 "HgN/A
5:00 PM63 °FPassing clouds.17 mph73%30.48 "HgN/A
4:00 PM63 °FPassing clouds.18 mph77%30.45 "HgN/A
3:00 PM63 °FScattered clouds.22 mph77%30.45 "HgN/A
2:59 PM61 °FScattered clouds.22 mph83%30.45 "HgN/A
2:00 PM64 °FScattered clouds.17 mph73%30.45 "HgN/A
1:00 PM64 °FLight rain. Partly sunny.14 mph73%30.45 "HgN/A
12:00 PM64 °FPassing clouds.9 mph83%30.45 "HgN/A
11:00 AM63 °FScattered clouds.9 mph83%30.48 "HgN/A
10:00 AM61 °FLight rain. Partly sunny.7 mph88%30.45 "HgN/A
9:56 AM61 °FLight rain. Partly sunny.6 mph88%30.45 "HgN/A
9:00 AM61 °FPartly sunny.5 mph77%30.42 "HgN/A
8:00 AM59 °FPartly sunny.8 mph82%30.42 "HgN/A
7:00 AM59 °FSunny.8 mph82%30.39 "Hg10 mi
Weather by CustomWeather, © 2015

See weather overviewHow to use our weather pages